Regional Weather Roundup
Issued by NWS Sioux Falls, SD

Home | Current Version | Previous Version | Text Only | Print | Product List | Glossary Off
Versions: 1 2 3 4 5 6 7 8 9 10 11 12 13 14 15 16 17 18 19 20 21 22 23 24 25 26 27 28 29 30 31 32 33 34 35 36 37 38 39 40 41 42 43 44 45 46 47 48 49 50

000
ASUS43 KFSD 210910
RWRFSD

WEATHER ROUNDUP FOR SE SOUTH DAKOTA/SW MINNESOTA/NW IOWA
NATIONAL WEATHER SERVICE SIOUX FALLS SD
400 AM CDT TUE OCT 21 2014

NOTE: "FAIR" INDICATES FEW OR NO CLOUDS BELOW 12,000 FEET WITH NO
SIGNIFICANT WEATHER AND OR OBSTRUCTIONS TO VISIBILITY.


SDZ038>040-050-052>070-211000-
SOUTHEAST SOUTH DAKOTA

CITY           SKY/WX    TMP DP  RH WIND       PRES   REMARKS
CHAMBERLAIN    CLEAR     46  37  68 SE9       29.96F
HURON          CLEAR     46  36  68 SE9       30.01F
MADISON        FAIR      41  36  81 SE6       30.06F
MITCHELL       CLEAR     47  37  68 SE9       30.03F
SIOUX FALLS    CLEAR     37  33  85 NE6       30.07S
WINNER         FAIR      60  40  47 S20       29.93F
YANKTON        CLEAR     43  37  81 NE3       30.06S
$$

MNZ071-072-080-081-089-090-097-098-211000-
SOUTHWEST MINNESOTA

CITY           SKY/WX    TMP DP  RH WIND       PRES   REMARKS
FAIRMONT       CLEAR     37  21  52 CALM      30.11R
JACKSON        CLEAR     37  34  87 E5        30.10S
LUVERNE        CLEAR     37  34  87 CALM      30.09S
MARSHALL       CLEAR     34  28  80 S3        30.08S
MONTEVIDEO     CLEAR     37  36  93 SE9       30.11S
PIPESTONE      CLEAR     43  36  75 SE6       30.08S
REDWOOD FALLS  CLEAR     42  37  82 E6        30.11R
TRACY          CLEAR     43  37  78 S6        30.09S
WINDOM         CLEAR     37  36  93 E3        30.10S
WORTHINGTON    PTCLDY    36  28  75 CALM      30.10S
$$

IAZ001>003-012>014-020>022-031-032-NEZ013-014-SDZ071-211000-
NORTHWEST IOWA

CITY           SKY/WX    TMP DP  RH WIND       PRES   REMARKS
CHEROKEE       CLEAR     36  36 100 NE3       30.09S
DENISON        CLEAR     37  37 100 CALM      30.07S
ESTHERVILLE    CLEAR     35  32  88 NE5       30.10S
LE MARS        CLEAR     36  34  93 CALM      30.08F
ORANGE CITY    CLEAR     46  37  71 E3        30.08S
SHELDON        CLEAR     36  34  93 E3        30.08R
SIOUX CITY     CLEAR     36  34  92 CALM      30.08S
SPENCER        CLEAR     34  31  88 NE3       30.10S
STORM LAKE     CLEAR     45  41  87 E6        30.09S
$$

ABBREVIATIONS USED IN REMARKS
   TC - TEMPERATURE IN CELSIUS
  WCI - WIND CHILL INDEX
   HX - HEAT INDEX
  VSB - VISIBILITY



USA.gov is the U.S. government's official web portal to all federal, state and local government web resources and services.